Location: *
(50.9167°S, 179.4000°W)
Time: 05:42:28
(UTC+00:00)

ATLAS 2AS CENTAUR R/B - Pass Details

Date: 18 June 2024
Orbit: 1019 x 1192 km, 63.7° (Epoch: 21 July)

Event Time Altitude Azimuth Distance (km) Brightness Sun altitude
Exits shadow 19:08:03 - 224° (SW) 3,233 4.6 -7.9°
Reaches altitude 10° 19:08:41 10° 223° (SW) 3,022 4.5 -7.8°
Maximum altitude 19:15:41 48° 149° (SSE) 1,485 3.5 -6.8°
Drops below altitude 10° 19:22:52 10° 75° (ENE) 3,112 6.7 -5.8°
Sets 19:25:46 0° 69° (ENE) 4,084 8.0 -5.4°
